#timestamp,LO_Frequency,Hit,StdDev 
1585767615.5,286047000.1,N
1585767635.3,286047001.9,N
1585767655.2,286047002.2,N
1585767675.9,286047003.9,Y
1585767695.7,286047001.2,P
1585767715.6,286047000.8,N
1585767735.4,286046997.7,P
1585767755.2,286046998.5,N
1585767775.1,286047000.7,N
1585767776.0,286047000.7,N
1585767795.8,286047001.2,N
1585767815.7,286047000.8,N
1585767835.5,286046999.7,N
1585767855.3,286047003.9,Y
1585767875.2,286047003.9,P
1585767895.0,286047003.1,N
1585767895.9,286047003.1,N
1585767915.8,286047003.4,N
1585767935.6,286047001.8,N
1585767955.4,286047002.0,N
1585767975.3,286047001.8,N
1585767995.1,286047003.7,Y
1585768015.9,286047001.5,P
1585768035.7,286046999.9,N
1585768055.5,286047002.2,N
1585768075.4,286047002.1,N
1585768095.2,286047000.4,N
1585768115.0,286047000.9,N
1585768116.0,286047000.9,N
1585768135.8,286046998.2,N
1585768155.6,286046998.9,N
1585768175.5,286046998.9,N
1585768195.3,286047000.4,N
1585768215.1,286047000.4,N
1585768235.9,286047000.3,N
1585768255.7,286047000.3,N
1585768275.6,286047000.0,N
1585768295.4,286046998.6,N
1585768315.2,286046996.9,N
1585768335.1,286047000.7,N
1585768336.0,286047000.7,N
1585768355.8,286047001.1,N
1585768375.7,286046999.3,N
1585768395.5,286046999.6,N
1585768415.3,286046999.0,N
1585768435.2,286046998.1,N
1585768455.9,286047000.8,N
1585768475.7,286047001.1,N
1585768495.6,286046999.3,N
1585768515.4,286046999.3,N
1585768535.3,286046998.2,N
1585768555.1,286047002.4,N
1585768556.0,286047002.4,N
1585768575.8,286047001.6,N
1585768595.7,286047002.3,N
1585768615.5,286047003.5,N
1585768635.4,286047002.0,N
1585768655.2,286047000.0,N
1585768675.0,286047002.6,N
1585768675.9,286047002.6,N
1585768695.8,286047002.1,N
1585768715.6,286047003.6,N
1585768735.4,286047002.6,N
1585768755.3,286047001.6,N
1585768775.1,286047002.1,N
1585768795.9,286047002.6,N
1585768815.7,286047001.0,N
1585768835.5,286046998.9,N
1585768855.4,286047001.2,N
1585768875.2,286046998.8,N
1585768895.0,286046998.3,N
1585768896.0,286046998.3,N
1585768915.8,286047001.2,N
1585768935.6,286047001.1,N
1585768955.5,286047000.8,N
1585768975.3,286046999.5,N
1585768995.1,286046997.9,N
1585769015.9,286046997.5,N
1585769035.7,286046998.7,N
1585769055.6,286046999.5,N
1585769075.4,286046996.6,N
1585769095.2,286046998.4,N
1585769115.1,286047000.8,N
1585769116.0,286047000.8,N
1585769135.8,286046998.5,N
1585769155.6,286046999.3,N
1585769175.5,286047000.2,N
1585769195.3,286047002.9,N
1585769215.2,286047003.0,N
1585769235.9,286047003.1,N
1585769255.7,286047004.1,N
1585769275.6,286047000.1,N
1585769295.4,286047002.8,N
1585769315.3,286047000.0,N
1585769335.1,286047002.7,N
1585769336.0,286047002.7,N
1585769355.8,286047001.7,N
1585769375.7,286046998.1,N
1585769395.5,286046999.5,N
1585769415.3,286046998.7,N
1585769435.2,286046998.8,N
1585769455.0,286046998.2,N
1585769455.9,286046998.2,N
1585769475.8,286046998.6,N
1585769495.6,286047001.0,N
1585769515.4,286047000.1,N
1585769535.3,286047001.1,N
1585769555.1,286046998.2,N
1585769575.9,286046998.8,N
1585769595.7,286046998.4,N
1585769615.5,286047002.6,N
1585769635.4,286047000.2,N
1585769655.2,286047001.5,N
1585769675.1,286047001.5,N
1585769676.0,286047001.5,N
1585769695.8,286047004.4,N
1585769715.6,286047002.6,N
1585769735.5,286047003.8,N
1585769755.3,286047005.9,N
1585769775.2,286047006.0,N
1585769795.9,286047003.7,N
1585769815.7,286047001.3,N
1585769835.6,286047002.1,N
1585769855.4,286047000.3,N
1585769875.2,286046999.9,N
1585769895.1,286047002.4,N
1585769896.0,286047002.4,N
1585769915.8,286047004.1,N
1585769935.7,286047002.9,N
1585769955.5,286047003.1,N
1585769975.3,286047004.4,N
1585769995.2,286047004.2,N
1585770015.0,286047003.5,N
1585770015.9,286047003.5,N
1585770035.8,286047005.5,N
1585770055.6,286047004.0,N
1585770075.4,286047004.1,N
1585770095.3,286047001.3,N
1585770115.1,286047005.6,N
1585770135.8,286047005.4,N
1585770155.7,286047003.3,N
1585770175.5,286047003.5,N
1585770195.4,286047003.3,N
1585770215.2,286047003.2,N
1585770235.0,286047003.4,N
1585770235.9,286047003.4,N
1585770255.8,286047005.9,Y
1585770275.6,286047002.1,P
1585770295.5,286047002.5,P
1585770315.3,286047001.3,N
1585770335.1,286047000.4,N
1585770355.9,286047002.7,N
1585770375.7,286046999.9,N
1585770395.6,286047000.8,N
1585770415.4,286046998.6,N
1585770435.2,286047000.3,N
1585770455.1,286047004.1,N
1585770456.0,286047004.1,N
1585770475.8,286047003.6,N
1585770495.6,286047001.6,N
1585770515.5,286047004.4,N
1585770535.3,286047002.8,N
1585770555.2,286046999.1,N
1585770575.9,286046999.3,N
1585770595.7,286047001.2,N
1585770615.6,286047003.9,N
1585770635.4,286047002.7,N
1585770655.3,286046999.9,N
1585770675.1,286047001.1,N
1585770676.0,286047001.1,N
1585770695.8,286046997.0,N
1585770715.7,286046998.3,N
1585770735.5,286046999.3,N
1585770755.3,286046996.7,N
1585770775.2,286046998.8,N
1585770795.0,286046996.5,N
1585770795.9,286046996.5,N
1585770815.8,286046998.4,N
1585770835.6,286046998.5,N
1585770855.4,286046999.2,N
1585770875.3,286046997.3,N
1585770895.1,286046997.0,N
1585770915.9,286046996.8,N
1585770935.7,286046997.0,N
1585770955.5,286046998.0,N
1585770975.4,286046995.7,N
1585770995.2,286046993.9,N
1585771015.0,286046994.0,N
1585771015.9,286046994.0,N
1585771035.8,286046995.5,N
1585771055.6,286046995.0,N
1585771075.5,286046996.4,N
1585771095.3,286046993.7,N
1585771115.1,286046994.6,N
1585771135.9,286046992.3,N
1585771155.7,286046992.7,N
1585771175.5,286046992.6,N
1585771195.4,286046992.0,Y
